Location: *
(37.4917°N, 71.5558°E)
Time: 01:13:11
(UTC+00:00)

USA 238 - Pass Details

Date: 09 April 2020
Orbit: 1014 x 1198 km, 63.4° (Epoch: 02 June)

Event Time Altitude Azimuth Distance (km) Brightness Sun altitude
Exits shadow 21:17:35 53° 27° (NNE) 1,259 4.2 -36.3°
Drops below altitude 10° 21:22:41 10° 32° (NNE) 2,900 6.7 -35.6°
Sets 21:25:23 0° 33° (NNE) 3,885 7.6 -35.3°
